User: anonymous   Login
Location: Unspecified
(0.0000°N, 0.0000°E)
Time: 19:49:43
(UTC+00:00)
Language:

APRIZESAT 7 - Orbit

View from above orbital plane
View from above orbital plane
View from above satellite
View from above satellite

Ground track
Ground track

The orbit data is extracted from the following two-line orbital elements,

1 39416U 13066A   17268.92037420 +.00000112 +00000-0 +19686-4 0  9998
2 39416 097.6229 314.5813 0039832 282.3544 077.3214 14.83729707208134
Epoch (UTC): 25 September 2017 22:05:20
Eccentricity: 0.0039832
inclination: 97.6229°
perigee height: 590 km
apogee height: 645 km
right ascension of ascending node: 314.5813°
argument of perigee: 282.3544°
revolutions per day: 14.83729707
mean anomaly at epoch: 77.3214°
orbit number at epoch: 20813

The dashed part of the orbit path shows where the satellite is in the earth's shadow,  

DLR